| time (UTC) | temp F | wind direction | speed MPH | gust MPH | rain 1hr in | rain 24hr in | rain mn in | humidity % | barometer mb |
| 20260510174539 | 79 | 77 | 10.0 | 15.0 | 0.00 | 0.00 | 0.00 | 87 | 1014.4 |
| 20260510173859 | 80 | 78 | 10.0 | 16.0 | 0.00 | 0.00 | 0.00 | 87 | 1014.4 |
| 20260510173429 | 79 | 59 | 13.0 | 16.0 | 0.00 | 0.00 | 0.00 | 87 | 1014.4 |
| 20260510172749 | 79 | 73 | 10.0 | 16.0 | 0.00 | 0.00 | 0.00 | 87 | 1014.4 |
| 20260510171859 | 79 | 65 | 12.0 | 16.0 | 0.00 | 0.00 | 0.00 | 89 | 1014.4 |
| 20260510171219 | 79 | 67 | 12.0 | 15.0 | 0.00 | 0.00 | 0.00 | 89 | 1014.8 |
| 20260510170751 | 79 | 75 | 11.0 | 16.0 | 0.00 | 0.00 | 0.00 | 87 | 1014.4 |
| 20260510165901 | 80 | 68 | 10.0 | 15.0 | 0.00 | 0.00 | 0.00 | 86 | 1014.4 |
| 20260510165219 | 79 | 63 | 12.0 | 15.0 | 0.00 | 0.00 | 0.00 | 88 | 1014.8 |
| 20260510164539 | 80 | 74 | 11.0 | 15.0 | 0.00 | 0.00 | 0.00 | 86 | 1014.8 |
| 20260510163859 | 79 | 69 | 10.0 | 15.0 | 0.00 | 0.00 | 0.00 | 87 | 1014.8 |
| 20260510163429 | 79 | 64 | 11.0 | 15.0 | 0.00 | 0.00 | 0.00 | 88 | 1014.8 |
| 20260510162539 | 79 | 58 | 11.0 | 15.0 | 0.00 | 0.00 | 0.00 | 87 | 1014.8 |
| 20260510161901 | 80 | 62 | 10.0 | 16.0 | 0.00 | 0.00 | 0.00 | 87 | 1014.8 |
| 20260510161219 | 80 | 48 | 13.0 | 15.0 | 0.00 | 0.00 | 0.00 | 85 | 1014.4 |
| 20260510160752 | 80 | 68 | 10.0 | 15.0 | 0.00 | 0.00 | 0.00 | 81 | 1014.4 |
| 20260510155859 | 80 | 52 | 13.0 | 15.0 | 0.00 | 0.00 | 0.00 | 82 | 1014.4 |
| 20260510155219 | 80 | 57 | 9.0 | 13.0 | 0.00 | 0.00 | 0.00 | 84 | 1014.4 |
| 20260510154748 | 80 | 55 | 10.0 | 14.0 | 0.00 | 0.00 | 0.00 | 87 | 1014.4 |
| 20260510153859 | 79 | 62 | 11.0 | 15.0 | 0.00 | 0.00 | 0.00 | 87 | 1014.4 |
| 20260510153219 | 79 | 60 | 11.0 | 16.0 | 0.00 | 0.00 | 0.00 | 86 | 1014.4 |
| 20260510152750 | 79 | 47 | 13.0 | 16.0 | 0.00 | 0.00 | 0.00 | 88 | 1014.8 |
| 20260510151859 | 79 | 57 | 11.0 | 16.0 | 0.00 | 0.00 | 0.00 | 90 | 1014.8 |
| 20260510151432 | 78 | 55 | 13.0 | 16.0 | 0.00 | 0.00 | 0.00 | 88 | 1014.8 |
| 20260510150539 | 78 | 50 | 13.0 | 16.0 | 0.00 | 0.00 | 0.00 | 89 | 1014.8 |
| 20260510145900 | 79 | 48 | 11.0 | 16.0 | 0.00 | 0.00 | 0.00 | 88 | 1014.8 |
| 20260510145434 | 78 | 45 | 10.0 | 16.0 | 0.00 | 0.00 | 0.00 | 91 | 1014.8 |
| 20260510144749 | 78 | 45 | 11.0 | 14.0 | 0.00 | 0.00 | 0.00 | 90 | 1014.8 |
| 20260510143900 | 78 | 53 | 9.0 | 13.0 | 0.00 | 0.00 | 0.00 | 91 | 1014.8 |
| 20260510143220 | 78 | 44 | 9.0 | 12.0 | 0.00 | 0.00 | 0.00 | 92 | 1014.4 |
| 20260510142751 | 78 | 52 | 8.0 | 14.0 | 0.00 | 0.00 | 0.00 | 92 | 1014.4 |
| 20260510141900 | 78 | 54 | 9.0 | 13.0 | 0.00 | 0.00 | 0.00 | 92 | 1014.4 |
| 20260510141220 | 78 | 55 | 8.0 | 12.0 | 0.00 | 0.00 | 0.00 | 92 | 1014.1 |
| 20260510140540 | 78 | 53 | 8.0 | 11.0 | 0.00 | 0.00 | 0.00 | 93 | 1014.1 |
| 20260510135900 | 78 | 69 | 5.0 | 11.0 | 0.00 | 0.00 | 0.00 | 93 | 1014.1 |
| 20260510135220 | 78 | 99 | 4.0 | 12.0 | 0.00 | 0.00 | 0.00 | 93 | 1013.7 |
| 20260510134750 | 77 | 109 | 9.0 | 15.0 | 0.00 | 0.00 | 0.00 | 93 | 1013.7 |
| 20260510133900 | 77 | 122 | 12.0 | 13.0 | 0.00 | 0.00 | 0.00 | 95 | 1013.4 |
| 20260510133220 | 77 | 123 | 10.0 | 11.0 | 0.00 | 0.00 | 0.00 | 95 | 1013.4 |
| 20260510132541 | 77 | 124 | 8.0 | 11.0 | 0.00 | 0.00 | 0.00 | 96 | 1013.1 |
| 20260510131900 | 76 | 127 | 8.0 | 14.0 | 0.00 | 0.00 | 0.00 | 96 | 1013.1 |
| 20260510131433 | 76 | 127 | 10.0 | 14.0 | 0.00 | 0.00 | 0.00 | 97 | 1013.1 |
| 20260510130540 | 76 | 130 | 6.0 | 11.0 | 0.00 | 0.00 | 0.00 | 97 | 1012.7 |
| 20260510125900 | 76 | 125 | 8.0 | 11.0 | 0.00 | 0.00 | 0.00 | 98 | 1012.7 |
| 20260510125220 | 76 | 127 | 9.0 | 11.0 | 0.00 | 0.00 | 0.00 | 98 | 1012.7 |
| 20260510124540 | 76 | 129 | 6.0 | 12.0 | 0.00 | 0.00 | 0.00 | 98 | 1012.7 |
| 20260510123900 | 76 | 124 | 5.0 | 9.0 | 0.00 | 0.00 | 0.00 | 98 | 1012.4 |
| 20260510123432 | 76 | 130 | 6.0 | 10.0 | 0.00 | 0.00 | 0.00 | 98 | 1012.4 |
| 20260510122541 | 76 | 125 | 8.0 | 10.0 | 0.00 | 0.00 | 0.00 | 98 | 1012.4 |
| 20260510122113 | 76 | 123 | 8.0 | 10.0 | 0.00 | 0.00 | 0.00 | 98 | 1012.0 |
| 20260510121220 | 76 | 123 | 7.0 | 9.0 | 0.00 | 0.00 | 0.00 | 98 | 1012.0 |
| 20260510120540 | 76 | 127 | 6.0 | 9.0 | 0.00 | 0.00 | 0.00 | 98 | 1012.0 |
| 20260510115900 | 76 | 133 | 7.0 | 9.0 | 0.00 | 0.00 | 0.00 | 98 | 1012.0 |
| 20260510115430 | 76 | 139 | 6.0 | 10.0 | 0.00 | 0.00 | 0.00 | 99 | 1011.7 |
| 20260510114540 | 76 | 138 | 6.0 | 10.0 | 0.00 | 0.00 | 0.00 | 98 | 1011.7 |
| 20260510113901 | 76 | 136 | 8.0 | 12.0 | 0.00 | 0.00 | 0.00 | 98 | 1011.7 |
| 20260510113220 | 76 | 138 | 9.0 | 13.0 | 0.00 | 0.00 | 0.00 | 98 | 1011.7 |
| 20260510112540 | 76 | 140 | 9.0 | 14.0 | 0.00 | 0.00 | 0.00 | 98 | 1011.4 |
| 20260510112114 | 76 | 135 | 9.0 | 15.0 | 0.00 | 0.00 | 0.00 | 98 | 1011.4 |
| 20260510111220 | 76 | 137 | 11.0 | 15.0 | 0.00 | 0.00 | 0.00 | 98 | 1011.4 |
| 20260510110540 | 76 | 136 | 10.0 | 15.0 | 0.00 | 0.00 | 0.00 | 98 | 1011.0 |
| 20260510105900 | 76 | 136 | 11.0 | 17.0 | 0.00 | 0.00 | 0.00 | 98 | 1011.0 |
| 20260510105220 | 76 | 135 | 12.0 | 17.0 | 0.00 | 0.00 | 0.00 | 98 | 1011.0 |
| 20260510104540 | 76 | 136 | 14.0 | 17.0 | 0.00 | 0.00 | 0.00 | 98 | 1011.0 |
| 20260510103900 | 76 | 133 | 12.0 | 18.0 | 0.00 | 0.00 | 0.00 | 98 | 1011.0 |
| 20260510103220 | 76 | 133 | 13.0 | 18.0 | 0.00 | 0.00 | 0.00 | 98 | 1011.0 |
| 20260510102540 | 76 | 130 | 13.0 | 19.0 | 0.00 | 0.00 | 0.00 | 97 | 1011.0 |
| 20260510102109 | 76 | 132 | 13.0 | 19.0 | 0.00 | 0.00 | 0.00 | 97 | 1011.0 |
| 20260510101430 | 76 | 131 | 14.0 | 18.0 | 0.00 | 0.00 | 0.00 | 97 | 1011.0 |
| 20260510100540 | 76 | 130 | 11.0 | 17.0 | 0.00 | 0.00 | 0.00 | 97 | 1011.0 |
| 20260510100111 | 76 | 127 | 12.0 | 17.0 | 0.00 | 0.00 | 0.00 | 97 | 1011.0 |
| 20260510095220 | 76 | 128 | 12.0 | 17.0 | 0.00 | 0.00 | 0.00 | 97 | 1011.0 |
| 20260510094542 | 76 | 123 | 13.0 | 18.0 | 0.00 | 0.00 | 0.00 | 96 | 1011.0 |
| 20260510093900 | 76 | 120 | 14.0 | 19.0 | 0.00 | 0.00 | 0.00 | 96 | 1011.0 |
| 20260510093220 | 76 | 122 | 15.0 | 19.0 | 0.00 | 0.00 | 0.00 | 96 | 1011.0 |
| 20260510092540 | 76 | 120 | 14.0 | 19.0 | 0.00 | 0.00 | 0.00 | 96 | 1011.0 |
| 20260510091900 | 76 | 115 | 15.0 | 21.0 | 0.00 | 0.00 | 0.00 | 96 | 1011.0 |
| 20260510091220 | 76 | 109 | 18.0 | 21.0 | 0.00 | 0.00 | 0.00 | 95 | 1011.0 |
| 20260510090541 | 76 | 117 | 11.0 | 19.0 | 0.00 | 0.00 | 0.00 | 96 | 1011.0 |
| 20260510090112 | 76 | 116 | 14.0 | 20.0 | 0.00 | 0.00 | 0.00 | 96 | 1011.0 |
| 20260510085222 | 76 | 108 | 15.0 | 20.0 | 0.00 | 0.00 | 0.00 | 95 | 1011.0 |
| 20260510084540 | 76 | 112 | 16.0 | 22.0 | 0.00 | 0.00 | 0.00 | 96 | 1011.0 |
| 20260510083900 | 76 | 110 | 16.0 | 20.0 | 0.00 | 0.00 | 0.00 | 96 | 1011.0 |
| 20260510083220 | 76 | 118 | 14.0 | 20.0 | 0.00 | 0.00 | 0.00 | 96 | 1011.0 |
| 20260510082540 | 76 | 121 | 14.0 | 20.0 | 0.00 | 0.00 | 0.00 | 96 | 1011.0 |
| 20260510081900 | 76 | 120 | 15.0 | 22.0 | 0.00 | 0.00 | 0.00 | 95 | 1011.0 |
| 20260510081431 | 76 | 120 | 15.0 | 22.0 | 0.00 | 0.00 | 0.00 | 95 | 1011.0 |
| 20260510080540 | 76 | 116 | 16.0 | 23.0 | 0.00 | 0.00 | 0.00 | 95 | 1011.0 |
| 20260510075900 | 76 | 109 | 17.0 | 23.0 | 0.00 | 0.00 | 0.00 | 95 | 1011.0 |
| 20260510075220 | 76 | 110 | 18.0 | 22.0 | 0.00 | 0.00 | 0.00 | 95 | 1011.0 |
| 20260510074540 | 76 | 116 | 16.0 | 25.0 | 0.00 | 0.00 | 0.00 | 95 | 1010.7 |
| 20260510073901 | 76 | 109 | 20.0 | 25.0 | 0.00 | 0.00 | 0.00 | 94 | 1010.7 |
| 20260510073220 | 76 | 112 | 17.0 | 22.0 | 0.00 | 0.00 | 0.00 | 94 | 1010.7 |
| 20260510072540 | 76 | 116 | 17.0 | 28.0 | 0.00 | 0.00 | 0.00 | 94 | 1011.0 |
| 20260510071900 | 77 | 110 | 21.0 | 29.0 | 0.00 | 0.00 | 0.00 | 93 | 1010.7 |
| 20260510071220 | 77 | 112 | 21.0 | 25.0 | 0.00 | 0.00 | 0.00 | 93 | 1011.0 |
| 20260510070752 | 77 | 109 | 19.0 | 26.0 | 0.00 | 0.00 | 0.00 | 92 | 1011.0 |
| 20260510065900 | 77 | 110 | 15.0 | 21.0 | 0.00 | 0.00 | 0.00 | 93 | 1011.0 |
| 20260510065220 | 77 | 98 | 14.0 | 22.0 | 0.00 | 0.00 | 0.00 | 93 | 1011.0 |
| 20260510064540 | 77 | 104 | 14.0 | 23.0 | 0.00 | 0.00 | 0.00 | 91 | 1011.4 |
| 20260510063900 | 77 | 106 | 13.0 | 20.0 | 0.00 | 0.00 | 0.00 | 92 | 1011.0 |
| 20260510063220 | 76 | 96 | 15.0 | 20.0 | 0.00 | 0.00 | 0.00 | 92 | 1011.4 |
| 20260510062540 | 76 | 84 | 13.0 | 20.0 | 0.00 | 0.00 | 0.00 | 91 | 1011.7 |
| 20260510062112 | 76 | 85 | 12.0 | 18.0 | 0.00 | 0.00 | 0.00 | 90 | 1011.7 |
| 20260510061221 | 76 | 88 | 12.0 | 18.0 | 0.00 | 0.00 | 0.00 | 90 | 1012.0 |
| 20260510060540 | 77 | 87 | 12.0 | 18.0 | 0.00 | 0.00 | 0.00 | 90 | 1012.0 |
| 20260510055900 | 77 | 74 | 11.0 | 20.0 | 0.00 | 0.00 | 0.00 | 89 | 1012.0 |
| 20260510055220 | 77 | 84 | 12.0 | 20.0 | 0.00 | 0.00 | 0.00 | 90 | 1012.0 |
| 20260510054540 | 77 | 81 | 9.0 | 14.0 | 0.00 | 0.00 | 0.00 | 90 | 1012.0 |
| 20260510053900 | 77 | 78 | 8.0 | 16.0 | 0.00 | 0.00 | 0.00 | 90 | 1012.0 |
| 20260510053220 | 77 | 80 | 10.0 | 18.0 | 0.00 | 0.00 | 0.00 | 90 | 1011.7 |
| 20260510052752 | 77 | 81 | 11.0 | 18.0 | 0.00 | 0.00 | 0.00 | 90 | 1011.7 |
| 20260510051900 | 77 | 75 | 10.0 | 17.0 | 0.00 | 0.00 | 0.00 | 90 | 1011.7 |
| 20260510051220 | 77 | 86 | 10.0 | 17.0 | 0.00 | 0.00 | 0.00 | 90 | 1011.7 |
| 20260510050542 | 77 | 91 | 13.0 | 20.0 | 0.00 | 0.00 | 0.00 | 90 | 1011.7 |
| 20260510045900 | 77 | 94 | 14.0 | 21.0 | 0.00 | 0.00 | 0.00 | 90 | 1011.7 |
| 20260510045220 | 77 | 94 | 13.0 | 21.0 | 0.00 | 0.00 | 0.00 | 90 | 1011.7 |
| 20260510044751 | 77 | 87 | 12.0 | 16.0 | 0.00 | 0.00 | 0.00 | 89 | 1011.7 |
| 20260510043900 | 77 | 83 | 8.0 | 13.0 | 0.00 | 0.00 | 0.00 | 88 | 1012.0 |
| 20260510043221 | 77 | 63 | 8.0 | 14.0 | 0.00 | 0.00 | 0.00 | 87 | 1012.0 |
| 20260510042540 | 77 | 74 | 7.0 | 14.0 | 0.00 | 0.00 | 0.00 | 86 | 1012.0 |
| 20260510041900 | 77 | 64 | 9.0 | 14.0 | 0.00 | 0.00 | 0.00 | 85 | 1012.0 |
| 20260510041220 | 77 | 69 | 9.0 | 13.0 | 0.00 | 0.00 | 0.00 | 84 | 1012.0 |
| 20260510040541 | 77 | 59 | 11.0 | 15.0 | 0.00 | 0.00 | 0.00 | 83 | 1012.0 |
| 20260510035900 | 77 | 75 | 9.0 | 15.0 | 0.00 | 0.00 | 0.00 | 82 | 1012.0 |
| 20260510035220 | 77 | 59 | 11.0 | 16.0 | 0.00 | 0.00 | 0.00 | 82 | 1012.0 |
| 20260510034540 | 77 | 58 | 11.0 | 18.0 | 0.00 | 0.00 | 0.00 | 82 | 1012.0 |
| 20260510033900 | 77 | 82 | 10.0 | 18.0 | 0.00 | 0.00 | 0.00 | 82 | 1011.7 |
| 20260510033221 | 77 | 76 | 9.0 | 15.0 | 0.00 | 0.00 | 0.00 | 82 | 1011.7 |
| 20260510032540 | 77 | 78 | 9.0 | 14.0 | 0.00 | 0.00 | 0.00 | 82 | 1011.7 |
| 20260510031900 | 77 | 85 | 9.0 | 14.0 | 0.00 | 0.00 | 0.00 | 84 | 1011.7 |
| 20260510031220 | 77 | 66 | 9.0 | 13.0 | 0.00 | 0.00 | 0.00 | 82 | 1011.7 |
| 20260510030540 | 78 | 63 | 9.0 | 13.0 | 0.00 | 0.00 | 0.00 | 81 | 1011.7 |
| 20260510025900 | 77 | 76 | 9.0 | 14.0 | 0.00 | 0.00 | 0.00 | 82 | 1011.4 |
| 20260510025221 | 77 | 73 | 8.0 | 13.0 | 0.00 | 0.00 | 0.00 | 83 | 1011.4 |
| 20260510024540 | 77 | 77 | 8.0 | 13.0 | 0.00 | 0.00 | 0.00 | 85 | 1011.0 |
| 20260510023900 | 77 | 70 | 6.0 | 12.0 | 0.00 | 0.00 | 0.00 | 85 | 1011.0 |
| 20260510023220 | 78 | 66 | 8.0 | 13.0 | 0.00 | 0.00 | 0.00 | 84 | 1011.0 |
| 20260510022540 | 78 | 68 | 8.0 | 13.0 | 0.00 | 0.00 | 0.00 | 81 | 1011.0 |
| 20260510021900 | 78 | 82 | 8.0 | 19.0 | 0.00 | 0.00 | 0.00 | 81 | 1010.7 |
| 20260510021220 | 78 | 107 | 16.0 | 19.0 | 0.00 | 0.00 | 0.00 | 75 | 1010.3 |
| 20260510020540 | 78 | 126 | 14.0 | 20.0 | 0.00 | 0.00 | 0.00 | 82 | 1010.0 |
| 20260510015900 | 78 | 132 | 16.0 | 20.0 | 0.00 | 0.00 | 0.00 | 82 | 1009.7 |
| 20260510015220 | 78 | 126 | 12.0 | 19.0 | 0.00 | 0.00 | 0.00 | 80 | 1009.7 |
| 20260510014540 | 78 | 127 | 15.0 | 19.0 | 0.00 | 0.00 | 0.00 | 80 | 1009.7 |
| 20260510013902 | 78 | 122 | 12.0 | 19.0 | 0.00 | 0.00 | 0.00 | 81 | 1009.7 |
| 20260510013220 | 78 | 125 | 15.0 | 19.0 | 0.00 | 0.00 | 0.00 | 81 | 1009.3 |
| 20260510012540 | 78 | 130 | 14.0 | 18.0 | 0.00 | 0.00 | 0.00 | 79 | 1009.3 |
| 20260510011900 | 79 | 126 | 14.0 | 18.0 | 0.00 | 0.00 | 0.00 | 76 | 1009.3 |
| 20260510011220 | 79 | 128 | 13.0 | 16.0 | 0.00 | 0.00 | 0.00 | 76 | 1009.3 |
| 20260510010540 | 79 | 127 | 13.0 | 15.0 | 0.00 | 0.00 | 0.00 | 75 | 1009.3 |
| 20260510005900 | 79 | 131 | 11.0 | 16.0 | 0.00 | 0.00 | 0.00 | 74 | 1009.3 |
| 20260510005220 | 80 | 127 | 12.0 | 20.0 | 0.00 | 0.00 | 0.00 | 73 | 1009.3 |
| 20260510004540 | 80 | 126 | 15.0 | 19.0 | 0.00 | 0.00 | 0.00 | 68 | 1009.3 |
| 20260510003900 | 80 | 123 | 15.0 | 19.0 | 0.00 | 0.00 | 0.00 | 69 | 1009.3 |
| 20260510003429 | 81 | 122 | 13.0 | 19.0 | 0.00 | 0.00 | 0.00 | 66 | 1009.3 |
| 20260510002540 | 81 | 122 | 16.0 | 21.0 | 0.00 | 0.00 | 0.00 | 63 | 1009.0 |
| 20260510001900 | 81 | 119 | 18.0 | 20.0 | 0.00 | 0.00 | 0.00 | 63 | 1009.3 |
| 20260510001220 | 81 | 122 | 14.0 | 18.0 | 0.00 | 0.00 | 0.00 | 62 | 1009.0 |
| 20260510000752 | 82 | 123 | 13.0 | 17.0 | 0.00 | 0.00 | 0.00 | 60 | 1009.0 |
| 20260509235901 | 82 | 121 | 13.0 | 18.0 | 0.00 | 0.00 | 0.00 | 65 | 1009.0 |
| 20260509235433 | 81 | 122 | 14.0 | 20.0 | 0.00 | 0.00 | 0.00 | 64 | 1009.0 |
| 20260509234540 | 82 | 122 | 15.0 | 20.0 | 0.00 | 0.00 | 0.00 | 67 | 1009.0 |
| 20260509234109 | 82 | 123 | 14.0 | 20.0 | 0.00 | 0.00 | 0.00 | 64 | 1009.3 |
| 20260509233220 | 82 | 120 | 15.0 | 21.0 | 0.00 | 0.00 | 0.00 | 60 | 1009.0 |
| 20260509232540 | 82 | 120 | 15.0 | 19.0 | 0.00 | 0.00 | 0.00 | 60 | 1009.3 |
| 20260509231901 | 82 | 119 | 15.0 | 18.0 | 0.00 | 0.00 | 0.00 | 60 | 1009.0 |
| 20260509231220 | 81 | 120 | 14.0 | 18.0 | 0.00 | 0.00 | 0.00 | 64 | 1009.0 |
| 20260509230540 | 81 | 122 | 15.0 | 18.0 | 0.00 | 0.00 | 0.00 | 74 | 1009.0 |
| 20260509225900 | 82 | 126 | 13.0 | 18.0 | 0.00 | 0.00 | 0.00 | 71 | 1009.0 |
| 20260509225220 | 83 | 119 | 11.0 | 15.0 | 0.00 | 0.00 | 0.00 | 62 | 1008.6 |
| 20260509224749 | 83 | 121 | 11.0 | 15.0 | 0.00 | 0.00 | 0.00 | 60 | 1009.0 |
| 20260509223900 | 84 | 119 | 12.0 | 15.0 | 0.00 | 0.00 | 0.00 | 57 | 1008.6 |
| 20260509223220 | 84 | 110 | 9.0 | 11.0 | 0.00 | 0.00 | 0.00 | 56 | 1008.6 |
| 20260509222540 | 84 | 111 | 8.0 | 11.0 | 0.00 | 0.00 | 0.00 | 55 | 1008.6 |
| 20260509222112 | 85 | 119 | 8.0 | 10.0 | 0.00 | 0.00 | 0.00 | 56 | 1008.6 |
| 20260509221220 | 85 | 115 | 7.0 | 10.0 | 0.00 | 0.00 | 0.00 | 60 | 1008.6 |
| 20260509220540 | 84 | 109 | 8.0 | 11.0 | 0.00 | 0.00 | 0.00 | 58 | 1008.6 |
| 20260509220114 | 84 | 110 | 8.0 | 11.0 | 0.00 | 0.00 | 0.00 | 61 | 1008.6 |
| 20260509215429 | 82 | 103 | 10.0 | 13.0 | 0.00 | 0.00 | 0.00 | 71 | 1008.6 |
| 20260509214750 | 82 | 99 | 12.0 | 13.0 | 0.00 | 0.00 | 0.00 | 69 | 1008.6 |
| 20260509213900 | 83 | 101 | 10.0 | 12.0 | 0.00 | 0.00 | 0.00 | 68 | 1008.6 |
| 20260509213220 | 83 | 97 | 10.0 | 12.0 | 0.00 | 0.00 | 0.00 | 66 | 1008.6 |
| 20260509212541 | 84 | 105 | 9.0 | 12.0 | 0.00 | 0.00 | 0.00 | 68 | 1008.6 |
| 20260509211900 | 84 | 100 | 9.0 | 12.0 | 0.00 | 0.00 | 0.00 | 67 | 1008.6 |
| 20260509211222 | 83 | 95 | 10.0 | 13.0 | 0.00 | 0.00 | 0.00 | 69 | 1008.6 |
| 20260509210540 | 84 | 96 | 9.0 | 11.0 | 0.00 | 0.00 | 0.00 | 69 | 1008.6 |
| 20260509205900 | 84 | 71 | 7.0 | 11.0 | 0.00 | 0.00 | 0.00 | 70 | 1008.6 |
| 20260509205220 | 84 | 91 | 8.0 | 13.0 | 0.00 | 0.00 | 0.00 | 68 | 1008.3 |
| 20260509204750 | 83 | 97 | 11.0 | 13.0 | 0.00 | 0.00 | 0.00 | 69 | 1008.3 |
| 20260509204111 | 83 | 91 | 8.0 | 11.0 | 0.00 | 0.00 | 0.00 | 67 | 1008.3 |
| 20260509203220 | 84 | 79 | 6.0 | 9.0 | 0.00 | 0.00 | 0.00 | 68 | 1008.6 |
| 20260509202540 | 83 | 72 | 6.0 | 10.0 | 0.00 | 0.00 | 0.00 | 67 | 1008.3 |
| 20260509201900 | 83 | 77 | 7.0 | 10.0 | 0.00 | 0.00 | 0.00 | 69 | 1008.6 |
| 20260509201220 | 84 | 83 | 7.0 | 10.0 | 0.00 | 0.00 | 0.00 | 66 | 1008.6 |
| 20260509200540 | 84 | 64 | 6.0 | 10.0 | 0.00 | 0.00 | 0.00 | 66 | 1008.6 |
| 20260509195900 | 83 | 68 | 7.0 | 11.0 | 0.00 | 0.00 | 0.00 | 67 | 1009.0 |
| 20260509195220 | 84 | 99 | 9.0 | 12.0 | 0.00 | 0.00 | 0.00 | 70 | 1009.0 |
| 20260509194540 | 85 | 82 | 6.0 | 11.0 | 0.00 | 0.00 | 0.00 | 65 | 1009.0 |
| 20260509193901 | 84 | 70 | 6.0 | 10.0 | 0.00 | 0.00 | 0.00 | 66 | 1009.3 |
| 20260509193432 | 85 | 74 | 5.0 | 11.0 | 0.00 | 0.00 | 0.00 | 63 | 1009.3 |
| 20260509192540 | 86 | 72 | 4.0 | 11.0 | 0.00 | 0.00 | 0.00 | 64 | 1009.3 |
| 20260509191900 | 86 | 18 | 1.0 | 4.0 | 0.00 | 0.00 | 0.00 | 55 | 1009.7 |
| 20260509191220 | 85 | 6 | 2.0 | 6.0 | 0.00 | 0.00 | 0.00 | 57 | 1009.7 |
| 20260509190540 | 85 | 292 | 3.0 | 6.0 | 0.00 | 0.00 | 0.00 | 58 | 1009.7 |
| 20260509185900 | 85 | 289 | 4.0 | 6.0 | 0.00 | 0.00 | 0.00 | 58 | 1009.7 |
| 20260509185431 | 85 | 348 | 2.0 | 5.0 | 0.00 | 0.00 | 0.00 | 56 | 1009.3 |
| 20260509184540 | 84 | 224 | 2.0 | 6.0 | 0.00 | 0.00 | 0.00 | 58 | 1009.3 |
| 20260509184112 | 84 | 282 | 3.0 | 6.0 | 0.00 | 0.00 | 0.00 | 57 | 1009.3 |
| 20260509183433 | 83 | 344 | 4.0 | 9.0 | 0.00 | 0.00 | 0.00 | 56 | 1009.3 |
| 20260509182540 | 84 | 337 | 6.0 | 11.0 | 0.00 | 0.00 | 0.00 | 59 | 1009.3 |
| 20260509182109 | 83 | 326 | 9.0 | 11.0 | 0.00 | 0.00 | 0.00 | 62 | 1009.3 |
| 20260509181220 | 82 | 302 | 8.0 | 10.0 | 0.00 | 0.00 | 0.00 | 66 | 1009.3 |
| 20260509180540 | 82 | 287 | 7.0 | 10.0 | 0.00 | 0.00 | 0.00 | 69 | 1009.7 |
| 20260509180111 | 82 | 294 | 7.0 | 9.0 | 0.00 | 0.00 | 0.00 | 70 | 1009.7 |
| 20260509175220 | 82 | 263 | 5.0 | 8.0 | 0.00 | 0.00 | 0.00 | 68 | 1009.7 |